{"data":{"norad_id":69013,"epoch":"2026-05-25T04:25:26.173344Z","epoch_age_seconds":55008,"freshness":"FRESH","line1":"1 69013U 26100AK  26145.18433071  .00006083  00000+0  28186-3 0  9997","line2":"2 69013  97.4097  43.4347 0009292  98.9705 261.2583 15.20412824  3315","mean_motion":15.20412824,"eccentricity":0.0009292,"inclination_deg":97.4097,"raan_deg":43.4347,"arg_perigee_deg":98.9705,"mean_anomaly_deg":261.2583,"bstar":0.00028186,"rev_number":331,"period_min":94.711119063805,"perigee_km":498.19902697895,"apogee_km":510.98989512617,"semimajor_km":6882.7314610526,"source":"CELESTRAK","updated_at":"2026-05-25T13:38:12.871118Z"}}